PAL730 RPLL-VTBS

Flight info

Callsign PAL730
Flight time 2h 51m
Altitude 34000
Route SIRCA2R SIRCA L628 ARESI/K0889F380 L628 PCA G474 ANINA/N0478F380 G474 VEMKO M633 DULEM TUMGA1C
Aircraft B77W/H-SDE1E2E3FGHIJ2J3J4J5M1RWXY/LB1D1

Departure

Time 2026-05-06 07:33
Airport Ninoy Aquino International Airport (RPLL)

Arrival

Time 2026-05-06 10:24
Airport Suvarnabhumi Airport (VTBS)
Time Latitude Longitude Altitude Speed Heading
2026-05-06 07:33 14.56113 121.11396 3947 ft 259 kts 56°
2026-05-06 07:33 14.57427 121.12714 3975 ft 276 kts 30°
2026-05-06 07:33 14.59268 121.13281 4848 ft 280 kts
2026-05-06 07:33 14.61173 121.13421 5841 ft 278 kts
2026-05-06 07:34 14.63115 121.13457 6619 ft 284 kts
2026-05-06 07:34 14.65119 121.13471 7419 ft 289 kts
2026-05-06 07:34 14.67112 121.13126 8169 ft 296 kts 338°
2026-05-06 07:34 14.68798 121.11944 8890 ft 302 kts 311°
2026-05-06 07:35 14.69846 121.10059 9634 ft 306 kts 285°
2026-05-06 07:35 14.69981 121.07889 10312 ft 311 kts 259°
2026-05-06 07:35 14.69421 121.05705 10761 ft 327 kts 252°
2026-05-06 07:35 14.68690 121.03397 11232 ft 343 kts 251°
2026-05-06 07:36 14.67931 121.01032 11728 ft 357 kts 251°
2026-05-06 07:36 14.67136 120.98561 12240 ft 371 kts 252°
2026-05-06 07:36 14.66303 120.95972 12760 ft 385 kts 252°
2026-05-06 07:36 14.65448 120.93314 13288 ft 398 kts 252°
2026-05-06 07:37 14.64573 120.90596 13940 ft 405 kts 252°
2026-05-06 07:37 14.63681 120.87830 14654 ft 410 kts 252°
2026-05-06 07:37 14.62782 120.85044 15358 ft 414 kts 252°
2026-05-06 07:37 14.61874 120.82227 16030 ft 418 kts 252°
2026-05-06 07:38 14.60943 120.79342 16704 ft 422 kts 251°
2026-05-06 07:38 14.60017 120.76471 17359 ft 426 kts 251°
2026-05-06 07:38 14.59084 120.73579 18001 ft 430 kts 251°
2026-05-06 07:38 14.58136 120.70644 18635 ft 434 kts 251°
2026-05-06 07:39 14.57172 120.67662 19261 ft 437 kts 251°
2026-05-06 07:39 14.56217 120.64709 19865 ft 441 kts 251°
2026-05-06 07:39 14.55240 120.61688 20470 ft 444 kts 251°
2026-05-06 07:39 14.54265 120.58677 21059 ft 447 kts 251°
2026-05-06 07:40 14.53276 120.55625 21639 ft 451 kts 251°
2026-05-06 07:40 14.52287 120.52570 22203 ft 454 kts 251°
2026-05-06 07:40 14.51276 120.49451 22770 ft 457 kts 251°
2026-05-06 07:40 14.50274 120.46363 23315 ft 460 kts 251°
2026-05-06 07:41 14.49259 120.43236 23870 ft 463 kts 251°
2026-05-06 07:41 14.48233 120.40075 24400 ft 466 kts 251°
2026-05-06 07:41 14.47201 120.36898 24917 ft 470 kts 251°
2026-05-06 07:41 14.46288 120.33662 25420 ft 473 kts 258°
2026-05-06 07:42 14.45838 120.30315 25925 ft 477 kts 265°
2026-05-06 07:42 14.45587 120.26906 26454 ft 480 kts 265°
2026-05-06 07:42 14.45348 120.23456 26984 ft 483 kts 265°
2026-05-06 07:42 14.45106 120.19977 27509 ft 486 kts 265°
2026-05-06 07:43 14.44863 120.16511 28049 ft 490 kts 265°
2026-05-06 07:43 14.44618 120.13032 28585 ft 493 kts 265°
2026-05-06 07:43 14.44368 120.09498 29125 ft 496 kts 265°
2026-05-06 07:43 14.44117 120.05967 29766 ft 496 kts 265°
2026-05-06 07:44 14.43866 120.02435 30535 ft 493 kts 265°
2026-05-06 07:44 14.43615 119.98929 31322 ft 488 kts 265°
2026-05-06 07:44 14.43366 119.95448 32046 ft 485 kts 265°
2026-05-06 07:44 14.43118 119.91992 32709 ft 483 kts 265°
2026-05-06 07:45 14.42872 119.88580 33406 ft 481 kts 265°
2026-05-06 07:45 14.42625 119.85167 33920 ft 482 kts 265°
2026-05-06 07:45 14.42128 119.78292 34031 ft 476 kts 265°
2026-05-06 07:46 14.41885 119.74950 33918 ft 468 kts 265°
2026-05-06 07:46 14.41639 119.71577 33898 ft 467 kts 265°
2026-05-06 07:46 14.41153 119.64913 33892 ft 470 kts 265°
2026-05-06 07:47 14.40660 119.58199 33841 ft 469 kts 265°
2026-05-06 07:47 14.40164 119.51482 33839 ft 470 kts 265°
2026-05-06 07:48 14.39670 119.44800 33859 ft 470 kts 265°
2026-05-06 07:48 14.39174 119.38107 33859 ft 470 kts 265°
2026-05-06 07:49 14.38675 119.31413 33860 ft 470 kts 265°
2026-05-06 07:49 14.38171 119.24687 33860 ft 470 kts 265°
2026-05-06 07:50 14.37669 119.17995 33859 ft 469 kts 265°
2026-05-06 07:50 14.37167 119.11333 33859 ft 469 kts 265°
2026-05-06 07:51 14.36661 119.04652 33859 ft 469 kts 265°
2026-05-06 07:51 14.36152 118.97940 33858 ft 469 kts 265°
2026-05-06 07:52 14.35643 118.91276 33858 ft 469 kts 265°
2026-05-06 07:52 14.35132 118.84591 33858 ft 469 kts 265°
2026-05-06 07:53 14.34619 118.77908 33859 ft 468 kts 265°
2026-05-06 07:53 14.34102 118.71204 33860 ft 468 kts 265°
2026-05-06 07:54 14.33588 118.64560 33860 ft 468 kts 266°
2026-05-06 07:54 14.33068 118.57861 33858 ft 468 kts 266°
2026-05-06 07:55 14.32549 118.51208 33857 ft 468 kts 266°
2026-05-06 07:55 14.32024 118.44489 33856 ft 468 kts 266°
2026-05-06 07:56 14.31502 118.37842 33856 ft 468 kts 266°
2026-05-06 07:56 14.30976 118.31163 33858 ft 469 kts 265°
2026-05-06 07:57 14.30449 118.24503 33859 ft 468 kts 266°
2026-05-06 07:57 14.29919 118.17821 33858 ft 468 kts 266°
2026-05-06 07:58 14.29389 118.11173 33858 ft 468 kts 266°
2026-05-06 07:58 14.28855 118.04485 33857 ft 468 kts 266°
2026-05-06 07:59 14.28320 117.97821 33857 ft 468 kts 266°
2026-05-06 07:59 14.27785 117.91170 33857 ft 468 kts 266°
2026-05-06 08:00 14.27243 117.84469 33858 ft 468 kts 266°
2026-05-06 08:00 14.26706 117.77840 33860 ft 468 kts 266°
2026-05-06 08:01 14.26164 117.71175 33861 ft 468 kts 266°
2026-05-06 08:01 14.25617 117.64472 33861 ft 468 kts 266°
2026-05-06 08:02 14.25072 117.57819 33860 ft 468 kts 266°
2026-05-06 08:02 14.24522 117.51139 33860 ft 468 kts 266°
2026-05-06 08:03 14.23971 117.44453 33860 ft 468 kts 266°
2026-05-06 08:03 14.23422 117.37818 33859 ft 467 kts 266°
2026-05-06 08:04 14.22869 117.31158 33862 ft 467 kts 266°
2026-05-06 08:04 14.22314 117.24496 33862 ft 467 kts 266°
2026-05-06 08:05 14.21760 117.17870 33862 ft 467 kts 266°
2026-05-06 08:05 14.21199 117.11183 33862 ft 467 kts 266°
2026-05-06 08:06 14.20638 117.04523 33862 ft 467 kts 266°
2026-05-06 08:06 14.20080 116.97906 33861 ft 467 kts 266°
2026-05-06 08:07 14.19518 116.91269 33860 ft 467 kts 266°
2026-05-06 08:07 14.18949 116.84588 33858 ft 467 kts 266°
2026-05-06 08:08 14.18385 116.77973 33856 ft 467 kts 266°
2026-05-06 08:08 14.17816 116.71330 33856 ft 467 kts 266°
2026-05-06 08:09 14.17241 116.64656 33859 ft 467 kts 266°
2026-05-06 08:09 14.16670 116.58019 33863 ft 467 kts 266°
2026-05-06 08:10 14.16097 116.51391 33865 ft 466 kts 266°
2026-05-06 08:10 14.15521 116.44748 33865 ft 466 kts 266°
2026-05-06 08:11 14.14944 116.38110 33865 ft 466 kts 266°
2026-05-06 08:11 14.14368 116.31514 33868 ft 466 kts 265°
2026-05-06 08:12 14.13784 116.24836 33868 ft 466 kts 265°
2026-05-06 08:12 14.13204 116.18234 33868 ft 466 kts 265°
2026-05-06 08:13 14.12615 116.11554 33868 ft 466 kts 265°
2026-05-06 08:13 14.12030 116.04932 33868 ft 466 kts 265°
2026-05-06 08:14 14.11444 115.98325 33867 ft 466 kts 265°
2026-05-06 08:14 14.10854 115.91696 33867 ft 466 kts 265°
2026-05-06 08:15 14.10261 115.85053 33867 ft 466 kts 266°
2026-05-06 08:15 14.09668 115.78429 33867 ft 466 kts 266°
2026-05-06 08:16 14.09071 115.71780 33866 ft 466 kts 266°
2026-05-06 08:16 14.08474 115.65156 33866 ft 466 kts 266°
2026-05-06 08:17 14.07876 115.58533 33866 ft 466 kts 266°
2026-05-06 08:17 14.07276 115.51915 33866 ft 466 kts 266°
2026-05-06 08:18 14.06671 115.45255 33866 ft 466 kts 266°
2026-05-06 08:18 14.06067 115.38631 33866 ft 465 kts 266°
2026-05-06 08:19 14.05461 115.32006 33869 ft 466 kts 265°
2026-05-06 08:19 14.04855 115.25394 33870 ft 466 kts 265°
2026-05-06 08:20 14.04246 115.18781 33870 ft 466 kts 265°
2026-05-06 08:20 14.03630 115.12125 33869 ft 466 kts 266°
2026-05-06 08:21 14.03021 115.05531 33869 ft 466 kts 266°
2026-05-06 08:21 14.02405 114.98894 33869 ft 466 kts 266°
2026-05-06 08:22 14.01787 114.92258 33869 ft 467 kts 266°
2026-05-06 08:22 14.01165 114.85598 33869 ft 467 kts 266°
2026-05-06 08:23 14.00544 114.78967 33869 ft 467 kts 266°
2026-05-06 08:23 13.99919 114.72317 33869 ft 468 kts 266°
2026-05-06 08:24 13.99292 114.65662 33866 ft 469 kts 266°
2026-05-06 08:24 13.98660 114.58971 33866 ft 470 kts 265°
2026-05-06 08:25 13.98025 114.52290 33870 ft 471 kts 266°
2026-05-06 08:25 13.97396 114.45583 33865 ft 470 kts 268°
2026-05-06 08:26 13.97358 114.38882 33867 ft 470 kts 272°
2026-05-06 08:26 13.97416 114.32174 33866 ft 470 kts 271°
2026-05-06 08:27 13.97468 114.25492 33866 ft 469 kts 271°
2026-05-06 08:27 13.97515 114.18780 33866 ft 469 kts 271°
2026-05-06 08:28 13.97560 114.12077 33865 ft 469 kts 271°
2026-05-06 08:28 13.97602 114.05384 33865 ft 469 kts 271°
2026-05-06 08:29 13.97642 113.98673 33865 ft 469 kts 271°
2026-05-06 08:29 13.97680 113.91952 33865 ft 469 kts 271°
2026-05-06 08:30 13.97715 113.85281 33864 ft 469 kts 271°
2026-05-06 08:30 13.97749 113.78587 33864 ft 469 kts 271°
2026-05-06 08:31 13.97781 113.71860 33863 ft 469 kts 271°
2026-05-06 08:31 13.97811 113.65194 33863 ft 469 kts 271°
2026-05-06 08:32 13.97839 113.58487 33863 ft 469 kts 271°
2026-05-06 08:32 13.97866 113.51792 33862 ft 469 kts 271°
2026-05-06 08:33 13.97890 113.45116 33862 ft 469 kts 271°
2026-05-06 08:33 13.97913 113.38405 33862 ft 470 kts 271°
2026-05-06 08:34 13.97944 113.28326 33861 ft 470 kts 271°
2026-05-06 08:35 13.97962 113.21645 33859 ft 470 kts 271°
2026-05-06 08:35 13.97978 113.14930 33859 ft 470 kts 271°
2026-05-06 08:36 13.97993 113.08209 33859 ft 470 kts 271°
2026-05-06 08:36 13.98006 113.01516 33858 ft 470 kts 271°
2026-05-06 08:37 13.98018 112.94804 33858 ft 470 kts 271°
2026-05-06 08:37 13.98028 112.88088 33858 ft 470 kts 271°
2026-05-06 08:38 13.98036 112.81362 33858 ft 470 kts 271°
2026-05-06 08:38 13.98043 112.74658 33858 ft 470 kts 271°
2026-05-06 08:39 13.98048 112.67963 33858 ft 470 kts 271°
2026-05-06 08:39 13.98050 112.61243 33858 ft 470 kts 271°
2026-05-06 08:40 13.98051 112.54552 33858 ft 470 kts 271°
2026-05-06 08:40 13.98051 112.47832 33858 ft 470 kts 271°
2026-05-06 08:41 13.98048 112.41158 33859 ft 470 kts 271°
2026-05-06 08:41 13.98044 112.34415 33859 ft 470 kts 271°
2026-05-06 08:42 13.98038 112.27743 33861 ft 470 kts 271°
2026-05-06 08:42 13.98029 112.21034 33862 ft 470 kts 271°
2026-05-06 08:43 13.98019 112.14310 33862 ft 470 kts 271°
2026-05-06 08:43 13.98007 112.07584 33861 ft 470 kts 271°
2026-05-06 08:44 13.97993 112.00879 33861 ft 469 kts 271°
2026-05-06 08:44 13.97978 111.94177 33861 ft 469 kts 271°
2026-05-06 08:45 13.97960 111.87509 33862 ft 469 kts 271°
2026-05-06 08:45 13.97941 111.80775 33865 ft 469 kts 271°
2026-05-06 08:46 13.97920 111.74079 33868 ft 469 kts 271°
2026-05-06 08:46 13.97897 111.67364 33868 ft 469 kts 271°
2026-05-06 08:47 13.97872 111.60680 33867 ft 469 kts 271°
2026-05-06 08:47 13.97846 111.53966 33867 ft 469 kts 271°
2026-05-06 08:48 13.97816 111.47285 33866 ft 470 kts 271°
2026-05-06 08:48 13.97782 111.40577 33866 ft 470 kts 271°
2026-05-06 08:49 13.97747 111.33870 33867 ft 470 kts 270°
2026-05-06 08:49 13.97711 111.27125 33868 ft 470 kts 270°
2026-05-06 08:50 13.97672 111.20411 33868 ft 470 kts 270°
2026-05-06 08:50 13.97632 111.13739 33868 ft 470 kts 270°
2026-05-06 08:51 13.97589 111.06988 33867 ft 470 kts 270°
2026-05-06 08:51 13.97546 111.00317 33867 ft 469 kts 270°
2026-05-06 08:52 13.97499 110.93584 33867 ft 469 kts 270°
2026-05-06 08:52 13.97452 110.86877 33867 ft 469 kts 270°
2026-05-06 08:53 13.97402 110.80209 33866 ft 469 kts 270°
2026-05-06 08:53 13.97351 110.73508 33866 ft 469 kts 270°
2026-05-06 08:54 13.97298 110.66822 33866 ft 469 kts 270°
2026-05-06 08:54 13.97243 110.60102 33865 ft 469 kts 270°
2026-05-06 08:55 13.97186 110.53393 33865 ft 469 kts 270°
2026-05-06 08:55 13.97127 110.46702 33865 ft 469 kts 270°
2026-05-06 08:56 13.97067 110.40017 33864 ft 468 kts 270°
2026-05-06 08:56 13.97004 110.33327 33864 ft 468 kts 270°
2026-05-06 08:57 13.96940 110.26638 33930 ft 476 kts 270°
2026-05-06 08:57 13.96907 110.23253 34334 ft 476 kts 270°
2026-05-06 08:57 13.96873 110.19867 34956 ft 470 kts 270°
2026-05-06 08:57 13.96838 110.16508 35519 ft 466 kts 270°
2026-05-06 08:58 13.96804 110.13184 35911 ft 469 kts 270°
2026-05-06 08:58 13.96735 110.06473 35989 ft 468 kts 270°
2026-05-06 08:59 13.96665 109.99839 35877 ft 459 kts 270°
2026-05-06 08:59 13.96611 109.93245 35859 ft 465 kts 270°
2026-05-06 09:00 13.96558 109.86630 35854 ft 463 kts 270°
2026-05-06 09:00 13.96503 109.79993 35853 ft 464 kts 270°
2026-05-06 09:01 13.96446 109.73382 35863 ft 464 kts 270°
2026-05-06 09:01 13.96387 109.66754 35865 ft 464 kts 270°
2026-05-06 09:02 13.96326 109.60129 35861 ft 464 kts 270°
2026-05-06 09:02 13.96263 109.53529 35861 ft 463 kts 270°
2026-05-06 09:03 13.96197 109.46851 35860 ft 463 kts 270°
2026-05-06 09:03 13.96127 109.40210 35860 ft 464 kts 270°
2026-05-06 09:04 13.96057 109.33598 35860 ft 464 kts 270°
2026-05-06 09:04 13.95985 109.26984 35861 ft 462 kts 270°
2026-05-06 09:05 13.95912 109.20351 35863 ft 461 kts 270°
2026-05-06 09:05 13.95837 109.13792 35866 ft 462 kts 270°
2026-05-06 09:06 13.95760 109.07198 35868 ft 462 kts 270°
2026-05-06 09:06 13.95813 109.00589 35871 ft 461 kts 273°
2026-05-06 09:07 13.96181 108.94003 35877 ft 461 kts 273°
2026-05-06 09:07 13.96532 108.87420 35897 ft 461 kts 273°
2026-05-06 09:08 13.96868 108.80851 35921 ft 461 kts 273°
2026-05-06 09:08 13.97196 108.74277 35946 ft 461 kts 273°
2026-05-06 09:09 13.97518 108.67718 35951 ft 460 kts 273°
2026-05-06 09:09 13.97837 108.61151 35948 ft 460 kts 273°
2026-05-06 09:10 13.98154 108.54559 35940 ft 460 kts 273°
2026-05-06 09:10 13.98468 108.47990 35938 ft 460 kts 273°
2026-05-06 09:11 13.98780 108.41416 35949 ft 460 kts 273°
2026-05-06 09:11 13.99091 108.34854 35935 ft 460 kts 272°
2026-05-06 09:12 13.99397 108.28323 35922 ft 459 kts 272°
2026-05-06 09:12 13.99704 108.21739 35901 ft 459 kts 272°
2026-05-06 09:13 14.00007 108.15211 35875 ft 459 kts 272°
2026-05-06 09:13 14.00315 108.08636 35857 ft 459 kts 272°
2026-05-06 09:14 14.00621 108.02062 35845 ft 459 kts 272°
2026-05-06 09:14 14.00458 107.95502 35837 ft 460 kts 267°
2026-05-06 09:15 14.00169 107.88969 35809 ft 460 kts 268°
2026-05-06 09:15 13.99900 107.82392 35779 ft 460 kts 268°
2026-05-06 09:16 13.99643 107.75827 35745 ft 459 kts 268°
2026-05-06 09:16 13.99307 107.69299 35725 ft 460 kts 266°
2026-05-06 09:17 13.98881 107.62744 35718 ft 460 kts 266°
2026-05-06 09:17 13.98454 107.56203 35712 ft 460 kts 266°
2026-05-06 09:18 13.98025 107.49663 35707 ft 460 kts 266°
2026-05-06 09:18 13.97593 107.43094 35700 ft 460 kts 266°
2026-05-06 09:19 13.97160 107.36543 35691 ft 461 kts 266°
2026-05-06 09:19 13.96721 107.29929 35687 ft 462 kts 266°
2026-05-06 09:20 13.96284 107.23381 35680 ft 463 kts 266°
2026-05-06 09:20 13.95840 107.16743 35680 ft 463 kts 266°
2026-05-06 09:21 13.95398 107.10171 35682 ft 464 kts 266°
2026-05-06 09:21 13.94952 107.03549 35683 ft 464 kts 266°
2026-05-06 09:22 13.94505 106.96951 35699 ft 464 kts 266°
2026-05-06 09:22 13.94054 106.90324 35763 ft 465 kts 266°
2026-05-06 09:23 13.93601 106.83691 35820 ft 466 kts 266°
2026-05-06 09:23 13.93147 106.77064 35807 ft 466 kts 265°
2026-05-06 09:24 13.92691 106.70445 35789 ft 465 kts 265°
2026-05-06 09:24 13.92230 106.63773 35808 ft 467 kts 265°
2026-05-06 09:25 13.91772 106.57167 35829 ft 467 kts 265°
2026-05-06 09:25 13.91308 106.50514 35832 ft 467 kts 265°
2026-05-06 09:26 13.90840 106.43825 35832 ft 467 kts 265°
2026-05-06 09:26 13.90375 106.37211 35830 ft 467 kts 265°
2026-05-06 09:27 13.89906 106.30547 35831 ft 467 kts 265°
2026-05-06 09:27 13.89432 106.23851 35831 ft 468 kts 265°
2026-05-06 09:28 13.88958 106.17182 35828 ft 468 kts 265°
2026-05-06 09:28 13.88483 106.10510 35823 ft 468 kts 265°
2026-05-06 09:29 13.88005 106.03831 35817 ft 468 kts 265°
2026-05-06 09:29 13.87527 105.97173 35816 ft 468 kts 265°
2026-05-06 09:30 13.87047 105.90528 35818 ft 468 kts 265°
2026-05-06 09:30 13.86562 105.83816 35820 ft 468 kts 265°
2026-05-06 09:31 13.86076 105.77130 35824 ft 468 kts 265°
2026-05-06 09:31 13.85592 105.70499 35826 ft 468 kts 265°
2026-05-06 09:32 13.85104 105.63843 35828 ft 468 kts 265°
2026-05-06 09:32 13.84615 105.57179 35819 ft 467 kts 264°
2026-05-06 09:33 13.84122 105.50485 35843 ft 468 kts 265°
2026-05-06 09:33 13.83628 105.43840 35844 ft 468 kts 266°
2026-05-06 09:34 13.83131 105.37144 35831 ft 468 kts 265°
2026-05-06 09:34 13.82637 105.30514 35830 ft 468 kts 265°
2026-05-06 09:35 13.82135 105.23807 35829 ft 468 kts 265°
2026-05-06 09:35 13.81633 105.17132 35828 ft 469 kts 265°
2026-05-06 09:36 13.81129 105.10442 35826 ft 469 kts 265°
2026-05-06 09:36 13.80622 105.03747 35824 ft 469 kts 265°
2026-05-06 09:37 13.80114 104.97063 35823 ft 469 kts 265°
2026-05-06 09:37 13.79607 104.90404 35821 ft 468 kts 265°
2026-05-06 09:38 13.79099 104.83759 35819 ft 468 kts 265°
2026-05-06 09:38 13.78586 104.77074 35816 ft 468 kts 265°
2026-05-06 09:39 13.78073 104.70408 35816 ft 468 kts 265°
2026-05-06 09:39 13.77558 104.63735 35823 ft 468 kts 265°
2026-05-06 09:40 13.77041 104.57079 35831 ft 469 kts 265°
2026-05-06 09:40 13.76262 104.47076 35835 ft 468 kts 265°
2026-05-06 09:41 13.75741 104.40422 35835 ft 469 kts 265°
2026-05-06 09:41 13.75216 104.33732 35837 ft 469 kts 265°
2026-05-06 09:42 13.74719 104.27062 35833 ft 468 kts 268°
2026-05-06 09:42 13.74681 104.20415 35838 ft 468 kts 270°
2026-05-06 09:43 13.74675 104.13732 35834 ft 468 kts 270°
2026-05-06 09:43 13.74667 104.07034 35830 ft 468 kts 270°
2026-05-06 09:44 13.74658 104.00401 35825 ft 467 kts 270°
2026-05-06 09:44 13.74648 103.93719 35823 ft 468 kts 270°
2026-05-06 09:45 13.74635 103.87051 35823 ft 467 kts 270°
2026-05-06 09:45 13.74621 103.80385 35824 ft 467 kts 270°
2026-05-06 09:46 13.74605 103.73704 35825 ft 468 kts 270°
2026-05-06 09:46 13.74587 103.67040 35824 ft 468 kts 270°
2026-05-06 09:47 13.74567 103.60311 35822 ft 468 kts 270°
2026-05-06 09:47 13.74546 103.53656 35821 ft 468 kts 270°
2026-05-06 09:48 13.74521 103.46965 35819 ft 469 kts 270°
2026-05-06 09:48 13.74497 103.40256 35819 ft 469 kts 270°
2026-05-06 09:49 13.74470 103.33574 35821 ft 469 kts 270°
2026-05-06 09:49 13.74442 103.26881 35822 ft 469 kts 270°
2026-05-06 09:50 13.74412 103.20170 35822 ft 470 kts 270°
2026-05-06 09:50 13.74379 103.13473 35823 ft 470 kts 270°
2026-05-06 09:51 13.74345 103.06760 35826 ft 470 kts 270°
2026-05-06 09:51 13.74309 103.00085 35830 ft 470 kts 270°
2026-05-06 09:52 13.74271 102.93371 35831 ft 471 kts 270°
2026-05-06 09:52 13.74231 102.86662 35832 ft 471 kts 270°
2026-05-06 09:53 13.74190 102.79948 35832 ft 472 kts 270°
2026-05-06 09:53 13.74146 102.73172 35832 ft 472 kts 270°
2026-05-06 09:54 13.74100 102.66452 35833 ft 472 kts 270°
2026-05-06 09:54 13.74053 102.59734 35834 ft 472 kts 270°
2026-05-06 09:55 13.74004 102.52978 35836 ft 473 kts 270°
2026-05-06 09:55 13.73960 102.47082 35837 ft 473 kts 270°
2026-05-06 09:56 13.73907 102.40321 35839 ft 473 kts 270°
2026-05-06 09:56 13.73852 102.33574 35834 ft 473 kts 269°
2026-05-06 09:57 13.73824 102.30193 35696 ft 475 kts 269°
2026-05-06 09:57 13.73704 102.26820 35530 ft 474 kts 264°
2026-05-06 09:57 13.73118 102.23487 35362 ft 473 kts 255°
2026-05-06 09:57 13.72040 102.20322 35317 ft 472 kts 246°
2026-05-06 09:58 13.69050 102.14284 35306 ft 476 kts 242°
2026-05-06 09:58 13.65960 102.08262 35303 ft 476 kts 242°
2026-05-06 09:59 13.62894 102.02312 35255 ft 468 kts 242°
2026-05-06 09:59 13.61376 101.99374 34844 ft 466 kts 242°
2026-05-06 09:59 13.59840 101.96401 34107 ft 472 kts 242°
2026-05-06 10:00 13.58305 101.93434 33195 ft 479 kts 242°
2026-05-06 10:00 13.56737 101.90407 32315 ft 484 kts 242°
2026-05-06 10:00 13.55148 101.87340 31310 ft 489 kts 242°
2026-05-06 10:00 13.53555 101.84266 30506 ft 488 kts 242°
2026-05-06 10:01 13.51989 101.81247 29824 ft 479 kts 242°
2026-05-06 10:01 13.50427 101.78236 29127 ft 471 kts 242°
2026-05-06 10:01 13.48897 101.75288 28375 ft 467 kts 242°
2026-05-06 10:01 13.47376 101.72357 27606 ft 464 kts 242°
2026-05-06 10:02 13.45867 101.69453 26936 ft 460 kts 242°
2026-05-06 10:02 13.44388 101.66605 26301 ft 456 kts 242°
2026-05-06 10:02 13.42899 101.63741 25657 ft 452 kts 242°
2026-05-06 10:02 13.41436 101.60882 25006 ft 448 kts 245°
2026-05-06 10:03 13.40352 101.57954 24339 ft 444 kts 255°
2026-05-06 10:03 13.39744 101.54864 23650 ft 440 kts 262°
2026-05-06 10:03 13.39344 101.51765 22905 ft 438 kts 263°
2026-05-06 10:03 13.38964 101.48696 22233 ft 434 kts 263°
2026-05-06 10:04 13.38589 101.45662 21678 ft 430 kts 263°
2026-05-06 10:04 13.38213 101.42626 21133 ft 426 kts 263°
2026-05-06 10:04 13.37841 101.39623 20593 ft 423 kts 263°
2026-05-06 10:04 13.37474 101.36662 20061 ft 420 kts 263°
2026-05-06 10:05 13.37109 101.33717 19554 ft 417 kts 263°
2026-05-06 10:05 13.36746 101.30790 19023 ft 414 kts 263°
2026-05-06 10:05 13.36383 101.27866 18480 ft 412 kts 263°
2026-05-06 10:05 13.36020 101.24950 17999 ft 408 kts 263°
2026-05-06 10:06 13.35687 101.22116 17841 ft 394 kts 266°
2026-05-06 10:06 13.35733 101.19365 17708 ft 380 kts 277°
2026-05-06 10:06 13.36184 101.16730 17413 ft 375 kts 282°
2026-05-06 10:06 13.36711 101.14116 17051 ft 371 kts 282°
2026-05-06 10:07 13.37242 101.11527 16716 ft 367 kts 282°
2026-05-06 10:07 13.37769 101.08979 16384 ft 364 kts 282°
2026-05-06 10:07 13.38296 101.06445 16050 ft 363 kts 282°
2026-05-06 10:07 13.38829 101.03942 15710 ft 362 kts 283°
2026-05-06 10:08 13.39353 101.01444 15385 ft 359 kts 282°
2026-05-06 10:08 13.39886 100.98955 15046 ft 358 kts 282°
2026-05-06 10:08 13.40401 100.96466 14717 ft 356 kts 282°
2026-05-06 10:08 13.40913 100.93984 14390 ft 355 kts 282°
2026-05-06 10:09 13.41680 100.91589 14047 ft 352 kts 298°
2026-05-06 10:09 13.43108 100.89573 13718 ft 350 kts 315°
2026-05-06 10:09 13.44954 100.87940 13400 ft 348 kts 323°
2026-05-06 10:09 13.46902 100.86484 13149 ft 345 kts 326°
2026-05-06 10:10 13.48902 100.85091 12909 ft 347 kts 327°
2026-05-06 10:10 13.50899 100.83742 12617 ft 345 kts 327°
2026-05-06 10:10 13.52962 100.82439 12292 ft 343 kts 335°
2026-05-06 10:10 13.55201 100.81755 11974 ft 340 kts 355°
2026-05-06 10:11 13.57561 100.81847 11679 ft 338 kts
2026-05-06 10:11 13.59876 100.82301 11373 ft 337 kts 13°
2026-05-06 10:11 13.62153 100.82864 11063 ft 335 kts 14°
2026-05-06 10:11 13.64425 100.83466 10775 ft 330 kts 15°
2026-05-06 10:12 13.66606 100.84055 10523 ft 324 kts 15°
2026-05-06 10:12 13.68779 100.84647 10278 ft 317 kts 15°
2026-05-06 10:12 13.70898 100.85227 10039 ft 310 kts 15°
2026-05-06 10:12 13.72968 100.85794 9765 ft 306 kts 15°
2026-05-06 10:13 13.75018 100.86356 9482 ft 299 kts 15°
2026-05-06 10:13 13.76998 100.86898 9218 ft 293 kts 15°
2026-05-06 10:13 13.78964 100.87437 8955 ft 287 kts 15°
2026-05-06 10:13 13.80873 100.87960 8700 ft 281 kts 15°
2026-05-06 10:14 13.82759 100.88477 8459 ft 278 kts 16°
2026-05-06 10:14 13.84634 100.88992 8210 ft 277 kts 16°
2026-05-06 10:14 13.86497 100.89502 7976 ft 276 kts 16°
2026-05-06 10:14 13.88371 100.90015 7741 ft 275 kts 16°
2026-05-06 10:15 13.90201 100.90516 7512 ft 274 kts 16°
2026-05-06 10:15 13.92060 100.91026 7277 ft 274 kts 16°
2026-05-06 10:15 13.93914 100.91535 7044 ft 273 kts 16°
2026-05-06 10:15 13.95731 100.92034 6814 ft 272 kts 16°
2026-05-06 10:16 13.97567 100.92539 6565 ft 271 kts 16°
2026-05-06 10:16 13.99383 100.93037 6330 ft 270 kts 15°
2026-05-06 10:16 14.01241 100.93222 6139 ft 266 kts 351°
2026-05-06 10:16 14.02995 100.92507 6094 ft 272 kts 324°
2026-05-06 10:17 14.04236 100.91051 6060 ft 274 kts 296°
2026-05-06 10:17 14.04707 100.89168 5902 ft 275 kts 270°
2026-05-06 10:17 14.04340 100.87263 5579 ft 275 kts 249°
2026-05-06 10:17 14.03613 100.85428 5229 ft 276 kts 246°
2026-05-06 10:18 14.02770 100.83684 4993 ft 270 kts 231°
2026-05-06 10:18 14.01381 100.82488 4984 ft 254 kts 209°
2026-05-06 10:18 13.99754 100.81761 4666 ft 256 kts 198°
2026-05-06 10:18 13.98036 100.81242 4277 ft 260 kts 194°
2026-05-06 10:19 13.96259 100.80782 3903 ft 262 kts 194°
2026-05-06 10:19 13.94478 100.80320 3567 ft 260 kts 195°
2026-05-06 10:19 13.92750 100.79837 3304 ft 253 kts 194°
2026-05-06 10:19 13.91030 100.79393 3260 ft 252 kts 194°
2026-05-06 10:20 13.89375 100.78941 3150 ft 244 kts 194°
2026-05-06 10:20 13.87735 100.78512 3025 ft 236 kts 195°
2026-05-06 10:20 13.86172 100.78095 2987 ft 224 kts 194°
2026-05-06 10:20 13.84703 100.77724 2976 ft 210 kts 195°
2026-05-06 10:21 13.83342 100.77351 2968 ft 197 kts 194°
2026-05-06 10:21 13.81998 100.77006 2752 ft 197 kts 194°
2026-05-06 10:21 13.80668 100.76652 2361 ft 199 kts 195°
2026-05-06 10:21 13.79347 100.76303 1981 ft 189 kts 195°
2026-05-06 10:22 13.78113 100.75976 1658 ft 182 kts 195°
2026-05-06 10:22 13.76922 100.75661 1381 ft 166 kts 195°
2026-05-06 10:22 13.75822 100.75372 1197 ft 158 kts 195°
2026-05-06 10:22 13.74767 100.75095 1003 ft 155 kts 195°
2026-05-06 10:23 13.73725 100.74806 778 ft 154 kts 197°
2026-05-06 10:23 13.72691 100.74542 523 ft 150 kts 193°
2026-05-06 10:23 13.71682 100.74303 363 ft 147 kts 196°
2026-05-06 10:23 13.70689 100.74031 202 ft 148 kts 197°
2026-05-06 10:24 13.69699 100.73759 26 ft 142 kts 196°
2026-05-06 10:24 13.68856 100.73535 15 ft 101 kts 194°
2026-05-06 10:24 13.68352 100.73401 15 ft 46 kts 194°
2026-05-06 10:24 13.68073 100.73334 15 ft 31 kts 181°
2026-05-06 10:25 13.67910 100.73370 15 ft 20 kts 161°
2026-05-06 10:25 13.67831 100.73395 15 ft 9 kts 162°
2026-05-06 10:25 13.67789 100.73432 15 ft 7 kts 86°